Regional Weather Roundup
Issued by NWS

Home | Current Version | Previous Version | Graphics & Text | Print | Product List | Glossary On
Versions: 1 2 3 4 5 6 7 8 9 10 11 12 13 14 15 16 17 18 19 20 21 22 23 24 25 26 27 28 29 30 31 32 33 34 35 36 37 38 39 40 41 42 43 44 45 46 47 48 49 50
000
ASUS43 KMPX 230901
RWRMN
WEATHER ROUNDUP FOR MINNESOTA
NATIONAL WEATHER SERVICE TWIN CITIES/CHANHASSEN MN
300 AM CST THU NOV 23 2017


NOTE: "FAIR" INDICATES FEW OR NO CLOUDS BELOW 12,000 FEET WITH NO
SIGNIFICANT WEATHER AND/OR OBSTRUCTIONS TO VISIBILITY. N/A MEANS
CURRENT SKY AND/OR WEATHER CONDITIONS ARE NOT AVAILABLE.

MNZ060>063-068>070-231000-
   Twin Cities Metro

CITY           SKY/WX    TMP DP  RH WIND       PRES   REMARKS
TWIN CITIES    CLOUDY    26  19  74 CALM      29.94R
ST PAUL        CLOUDY    26  19  74 CALM      29.95R
CRYSTAL        PTCLDY    22  14  71 CALM      29.92S
BLAINE         CLOUDY    25  19  80 CALM      29.93S
LAKEVILLE      CLOUDY    21  18  86 CALM      29.93R
EDEN PRAIRIE   CLOUDY    27  18  69 CALM      29.93R
SOUTH ST PAUL  CLOUDY    24  18  78 CALM      29.94R
LAKE ELMO      FAIR      23  19  86 CALM      29.95R
$$
MNZ001>005-007-008-013>017-022>024-027-028-231000-
   Northwest Minnesota

CITY           SKY/WX    TMP DP  RH WIND       PRES   REMARKS
BEMIDJI        CLOUDY    16  15  94 CALM      29.90S
HALLOCK        PTCLDY    12  10  92 S3        29.91F
ROSEAU         CLOUDY    18  12  79 SW6       29.90F WCI   9
WARROAD        CLOUDY    16  12  86 SW5       29.89F WCI   9
CROOKSTON      CLOUDY    19  18  93 CALM      29.95S
FOSSTON        CLOUDY    10   9  92 S3        29.93R
DETROIT LAKES  CLOUDY    21  19  93 SW3       29.93R
MOORHEAD       CLOUDY    19  14  79 CALM      29.97S
PARK RAPIDS    CLOUDY    11   7  84 CALM      29.90S
MAHNOMEN       FAIR      17  13  84 CALM      29.93R
$$
MNZ006-009>011-018-025>026-231000-
   North Central Minnesota

CITY           SKY/WX    TMP DP  RH WIND       PRES   REMARKS
BAUDETTE       CLOUDY    17  15  92 W3        29.88R
FLAG ISLAND    CLOUDY    18  16  93 W3        29.87F
INTL FALLS     CLOUDY    19  15  84 W5        29.89S WCI  12
WASKISH        CLOUDY    19  18  93 CALM      29.90S
BIG FORK       PTCLDY    18  16  93 CALM      29.89F
LONGVILLE      CLOUDY     9   7  92 CALM      29.91S
GRAND RAPIDS   CLOUDY    19  18  95 CALM      29.92F
CRANE LAKE     CLOUDY    19  18  93 CALM      29.91F
ORR            CLOUDY    19  16  86 CALM      29.86F
COOK           CLOUDY    19  18  93 CALM      29.90F
WALKER         FAIR      13  11  91 CALM      29.90S
$$
MNZ012-019>021-037-231000-
   Northeast Minnesota

CITY           SKY/WX    TMP DP  RH WIND       PRES   REMARKS
DULUTH         CLOUDY    21  19  92 W9        29.90F WCI  11
ELY            CLOUDY    19  16  86 W6        29.89F WCI  11
HIBBING        CLOUDY    19  17  92 CALM      29.90F
EVELETH        CLOUDY    20  16  84 CALM      29.91F
DULUTH HARBOR  CLOUDY    27  21  80 SW5       29.96S WCI  21
TWO HARBORS    CLOUDY    27  19  74 CALM      29.90S
SILVER BAY     CLOUDY    23  19  86 CALM      29.89S
GRAND MARAIS     N/A     26  18  71 VRB3      29.91S
G MARAIS ARPRT CLOUDY    18  12  79 W3        29.84S
$$
MNZ029>031-032-039>041-046>048-054>057-064-231000-
   West Central Minnesota

CITY           SKY/WX    TMP DP  RH WIND       PRES   REMARKS
FERGUS FALLS   CLOUDY    18  14  86 W5        29.98R WCI  11
WHEATON        CLOUDY    25  18  74 NW5       29.98S WCI  19
MORRIS         CLOUDY    21  18  86 NW8       29.94S WCI  12
ALEXANDRIA     CLOUDY    22  18  85 NW3       29.92S
ELBOW LAKE     FAIR      20  16  84 CALM      29.95R FOG
WADENA         CLOUDY    18  14  86 CALM      29.91S
GLENWOOD       CLOUDY    19  16  86 CALM      29.93S
APPLETON       CLOUDY    27  21  80 CALM      29.96R
BENSON         CLOUDY    18  16  93 CALM      29.96R
ORTONVILLE     CLOUDY    27  21  80 NW9       29.96R WCI  17
MADISON        CLOUDY    28  25  86 W6        29.96R WCI  22
WILLMAR        FAIR      21  18  86 W5        29.95R WCI  15
$$
MNZ033>034-036-042>043-049>051-058-059-231000-
   Central Minnesota

CITY           SKY/WX    TMP DP  RH WIND       PRES   REMARKS
ST CLOUD       CLOUDY    20  17  88 CALM      29.92F
SAUK CENTRE    FAIR      19  16  89 CALM      29.93S
PAYNESVILLE    CLOUDY    18  17  95 CALM      29.93S
AITKIN         CLOUDY    10   9  92 CALM      29.91F
PINE RIVER     CLOUDY    10   9  92 CALM      29.95S
BRAINERD       CLOUDY    12   9  87 CALM      29.91F
STAPLES        CLOUDY    16  12  86 CALM      29.92R
LITTLE FALLS   CLOUDY    23  14  68 CALM      29.93S
LITCHFIELD     CLOUDY    23  21  93 CALM      29.93S
BUFFALO        CLOUDY    21  16  83 CALM      29.93F
MAPLE LAKE     CLOUDY    21  19  92 CALM      29.93F
HUTCHINSON     PTCLDY    20  17  90 W3        29.94S
$$
MNZ037-044-045-052-053-231000-
   East Central Minnesota

CITY           SKY/WX    TMP DP  RH WIND       PRES   REMARKS
PRINCETON      CLOUDY    25  19  80 CALM      29.92S
MORA           CLOUDY    21  19  93 CALM      29.96R
CAMBRIDGE      CLOUDY    27  18  69 CALM      29.93F
RUSH CITY      CLOUDY    23  19  86 CALM      29.93F
MOOSE LAKE     CLOUDY    23  19  86 CALM      29.91F
HINCKLEY       PTSUNNY   23  21  93 CALM      29.94S
CLOQUET        CLOUDY    23  19  86 CALM      29.91F
MCGREGOR       CLOUDY    18  14  86 CALM      29.92F
$$
MNZ071>073-080-081-089-090-097-098-231000-
   Southwest Minnesota

CITY           SKY/WX    TMP DP  RH WIND       PRES   REMARKS
MONTEVIDEO     CLOUDY    27  19  74 NW6       29.95S WCI  20
GRANITE FALLS  CLOUDY    29  23  78 NW10      29.97R WCI  20
CANBY          CLOUDY    31  25  76 W7        29.98R WCI  25
MARSHALL       CLOUDY    27  22  81 NW8       29.97R WCI  19
REDWOOD FALLS  CLOUDY    28  18  66 NW9       29.94R WCI  19
OLIVIA         CLOUDY    27  19  74 NW7       29.93R WCI  19
PIPESTONE      CLOUDY    30  21  69 NW8       29.93S WCI  23
WINDOM         CLOUDY    25  10  54 W9        29.93S WCI  15
WORTHINGTON    CLOUDY    27  20  75 W9        29.95R WCI  18
JACKSON        CLOUDY    30  21  69 CALM      29.93S
SLAYTON        CLOUDY    28  15  58 W7        29.94R WCI  20
$$
MNZ065>067-074>077-082>085-091>093-231000-
   South Central Minnesota

CITY           SKY/WX    TMP DP  RH WIND       PRES   REMARKS
MANKATO        CLOUDY    26  18  71 SW3       29.93R
NEW ULM        CLOUDY    21  16  79 CALM      29.93R
ST JAMES       CLOUDY    25  18  74 W7        29.94R WCI  17
FAIRMONT       CLOUDY    28  20  71 W5        29.93R WCI  23
GLENCOE        CLOUDY    24  19  80 CALM      29.92S
FARIBAULT      CLOUDY    25  18  74 CALM      29.93R
OWATONNA       CLOUDY    27  19  74 S3        29.91S
WASECA         CLOUDY    25  18  74 SW5       29.93S WCI  19
ALBERT LEA     CLOUDY    28  18  64 SW6       29.91S WCI  22
$$
MNZ078>079-086>088-094>096-231000-
   Southeast Minnesota

CITY           SKY/WX    TMP DP  RH WIND       PRES   REMARKS
ROCHESTER      CLOUDY    25  18  74 SW9       29.91S WCI  15
RED WING       CLOUDY    27  16  63 CALM      29.94S
STANTON        CLOUDY    25  19  77 CALM      29.92S
DODGE CENTER   CLOUDY    27  18  69 SW8       29.91S WCI  18
WINONA           N/A     30  19  64 CALM      29.97R
AUSTIN         CLOUDY    25  18  74 SW3       29.92S
PRESTON        CLOUDY    28  17  62 SW10      29.92S WCI  19
$$
ABBREVIATIONS USED IN REMARKS
   TC - TEMPERATURES IN CELSIUS
  WCI - WIND CHILL INDEX
   HX - HEAT INDEX
  VSB - VISIBILITY
$$




USA.gov is the U.S. government's official web portal to all federal, state and local government web resources and services.